Hourly Data Report for October 21, 2014

All times are specified in Local Standard Time (LST). Add 1 hour to adjust for Daylight Saving Time where and when it is observed.

IQALUIT CLIMATE
NUNAVUT

63°44'50.000" N
68°32'40.000" W
33.50 m
2402592
71321
XFB

Download Data

Hourly Data (October 2014)
Hourly Data Report for October 21, 2014
Temp Definition
°C
Dew Point Temp Definition
°C
Rel Hum Definition
%
Wind Dir Definition
10's deg

Wind Spd Definition
km/h
Visibility Definition
km
Stn Press Definition
kPa
Hmdx Definition


Wind Chill Definition


Weather Definition


TIME
00:00 -9.4 -10.9 89 30 2   100.90   -11 LegendNANA
01:00 -9.0 -10.7 87 36 4   100.88   -11 LegendNANA
02:00 -8.5 -10.2 87 1 2   100.81   -10 LegendNANA
03:00 -7.8 -9.8 86 8 4   100.74   -10 LegendNANA
04:00 -7.4 -9.0 88 23 1   100.70   -8 LegendNANA
05:00 -7.3 -8.9 88 36 3   100.67   -9 LegendNANA
06:00 -6.9 -8.5 89 2 3   100.69   -8 LegendNANA
07:00 -6.7 -8.2 89 34 5   100.68   -9 LegendNANA
08:00 -7.5 -8.6 92 32 8   100.73   -12 LegendNANA
09:00 -6.8 -7.8 93 29 5   100.71   -9 LegendNANA
10:00 -5.6 -6.4 94 1 1   100.72   -6 LegendNANA
11:00 -3.7 -5.3 89 31 6   100.71   -6 LegendNANA
12:00 -2.8 -5.1 84 31 21   100.74   -9 LegendNANA
13:00 -2.9 -5.6 82 31 23   100.78   -9 LegendNANA
14:00 -4.0 -6.5 83 32 19   100.82   -10 LegendNANA
15:00 -4.7 -7.0 84 31 12   100.87   -9 LegendNANA
16:00 -6.5 -8.4 86 34 15   100.90   -12 LegendNANA
17:00 -5.4 -7.1 88 32 10   100.93   -10 LegendNANA
18:00 -5.9 -7.8 86 35 9   100.95   -10 LegendNANA
19:00 -5.4 -7.3 86 35 5   100.98   -8 LegendNANA
20:00 -5.6 -7.1 89 33 5   101.01   -8 LegendNANA
21:00 -5.6 -6.6 93 36 3   100.99   -7 LegendNANA
22:00 -4.3 -5.4 92 14 5   100.97   -6 LegendNANA
23:00 -4.1 -5.8 88 12 10   100.95   -8 LegendNANA

Notes on Data Quality.

Legend

  • E = Estimated
  • M = Missing
  • NA = Not Available
  • ‡ = Partner data that is not subject to review by the National Climate Archives
Date modified: